Location: Staunton
(38.1490°N, 79.0720°W)
Time: 14:47:21
(UTC-04:00)

ISS - Pass Details

Date: 23 July 2017
Orbit: 400 x 408 km, 51.6° (Epoch: 21 July)

Event Time Altitude Azimuth Distance (km) Brightness Sun altitude
Rises 00:24:50 0° 287° (WNW) 2,306 0.4 -30.2°
Reaches altitude 10° 00:28:13 10° 325° (NW) 1,450 -0.2 -30.4°
Maximum altitude 00:29:15 11° 344° (NNW) 1,384 -0.3 -30.5°
Drops below altitude 10° 00:30:17 10° 2° (N) 1,451 -0.2 -30.5°
Sets 00:33:40 0° 40° (NE) 2,313 0.5 -30.7°
